Content
SEND FEEDBACK

Daily
Averages
Monthly
Summary
United States of America

RAPID CITY, SOUTH DAKOTA


Home > North America > United States > South Dakota
Elevation: 963 meters     Latitude: 44 03N     Longitude: 103 04W

WEATHER
 
SELECT A DAY
Number of Records: 204,205;   Date Range: 1/1/95 - 11/21/14
 
SHARE

PRINT THIS DATA

[ ← Previous Day ]
WEATHER ALMANAC - 28 JANUARY, 2013
[ Next Day → ]
[ °F ]   °C
Weather ElementAverageHighLow
Temperature-1.4 °C0 °C (1:52 am)-7.8 °C (11:52 pm)
Dewpoint-2.6 °C-1.7 °C (3:52 am)-9.4 °C (11:52 pm)
Humidity91.9 %100 % (5:41 pm)85 % (1:52 am)
Barometer1008.8 hPa1012.2 hPa (10:52 am)1006.8 hPa (3:34 am)
Wind Speed17.2 km/h29.6 km/h (6:00 am)
Wind Gust35.2 km/h (5:52 am)
Weather ElementAverage
Visibility8.4 km
Wind DirectionWNW (292.6 °)

Weather ElementTotal
Precipitation3.3 mm
Heating Degree Days22.2 (Base 18.3)
Averaged from 54 records on 28 January, 2013
WEATHER CONDITIONS BREAKOUT
WIND DIRECTION BREAKOUT
WEATHER BY HOUR - 28 JANUARY, 2013
[ °F ]   °C
Local TimeTemperatureDewpointHumidityBarometerVisibilityWind DirectionWind SpeedGust SpeedPrecipitationEventsConditions
12:52 AM-2.2 °C-3.9 °C88 %1009.5 hPa16.1 kmWNW (290°)5.6 km/hOvercast
1:52 AM0 °C-2.2 °C85 %1008.8 hPa16.1 kmNorth (360°)22.2 km/hOvercast
2:22 AM0 °C-2 °C87 %1007.5 hPa16.1 kmNorth (360°)18.5 km/hOvercast
2:33 AM-1 °C-2 °C93 %1007.8 hPa16.1 kmNorth (360°)16.7 km/hOvercast
2:52 AM0 °C-2.2 °C85 %1009.1 hPa16.1 kmNorth (350°)24.1 km/hOvercast
3:34 AM-1 °C-2 °C93 %1006.8 hPa16.1 kmNorth (350°)27.8 km/hOvercast
3:52 AM-0.6 °C-1.7 °C92 %1010.2 hPa16.1 kmNorth (350°)24.1 km/hOvercast
4:52 AM-0.6 °C-2.2 °C89 %1010.2 hPa6.4 kmNorth (350°)24.1 km/h0 mmSnowLight Snow
5:02 AM-1 °C-2 °C93 %1007.1 hPa2.9 kmNorth (350°)27.8 km/h0 mmSnowLight Snow
5:14 AM-1 °C-2 °C93 %1007.5 hPa4 kmNorth (350°)24.1 km/h0 mmSnowLight Snow
5:16 AM-1 °C-2 °C93 %1007.5 hPa4.8 kmNNW (340°)25.9 km/h0 mmSnowLight Snow
5:25 AM-1 °C-2 °C93 %1007.8 hPa6.4 kmNorth (350°)20.4 km/h0 mmSnowLight Snow
5:52 AM-1.1 °C-2.2 °C92 %1009.8 hPa4.8 kmNNW (340°)27.8 km/h35.2 km/h0.25 mmSnowLight Snow
6:00 AM-1 °C-2 °C93 %1007.1 hPa4 kmNorth (350°)29.6 km/h0 mmSnowLight Snow
6:09 AM-1 °C-2 °C93 %1007.8 hPa6.4 kmNNW (340°)18.5 km/h0 mmSnowLight Snow
6:52 AM-1.1 °C-2.2 °C92 %1011.2 hPa16.1 kmNorth (350°)16.7 km/h0 mmOvercast
7:52 AM-1.1 °C-2.2 °C92 %1010.8 hPa4.8 kmNNW (340°)22.2 km/h0 mmSnowLight Snow
8:33 AM-1 °C-2 °C93 %1008.1 hPa12.9 kmNorth (350°)20.4 km/h0 mmSnowLight Snow
8:52 AM-1.1 °C-2.2 °C92 %1011.2 hPa4.8 kmNorth (360°)13 km/h0.25 mmSnowLight Snow
8:59 AM-1 °C-2 °C93 %1008.1 hPa1.9 kmNNW (340°)14.8 km/h0 mmSnowLight Snow
9:09 AM-1 °C-2 °C93 %1008.1 hPa3.2 kmNNW (340°)16.7 km/h0 mmSnowLight Snow
9:19 AM-1 °C-2 °C93 %1008.5 hPa3.2 kmNNW (340°)20.4 km/h0 mmSnowLight Snow
9:26 AM-1 °C-2 °C93 %1008.8 hPa3.2 kmNNW (340°)14.8 km/h0 mmSnowLight Snow
9:30 AM-1 °C-2 °C93 %1008.5 hPa4.8 kmNNW (340°)16.7 km/h0 mmSnowLight Snow
9:45 AM-1 °C-2 °C93 %1008.8 hPa8 kmNNW (340°)18.5 km/h0 mmOvercast
9:52 AM-0.6 °C-2.2 °C89 %1011.9 hPa8 kmNNW (340°)20.4 km/h0 mmSnowLight Snow
10:12 AM-1 °C-2 °C93 %1009.1 hPa12.9 kmNNW (340°)16.7 km/hSnowLight Snow
10:48 AM-1 °C-2 °C93 %1009.1 hPa4.8 kmNorth (350°)18.5 km/h0.25 mmSnowLight Snow
10:52 AM-0.6 °C-2.2 °C89 %1012.2 hPa4.8 kmNorth (350°)18.5 km/h0.25 mmSnowLight Snow
11:30 AM-1 °C-2 °C93 %1008.1 hPa4 kmNorth (360°)24.1 km/h0 mmSnowLight Snow
11:52 AM-0.6 °C-2.2 °C89 %1011.2 hPa3.2 kmNorth (360°)22.2 km/h0 mmSnowLight Snow
12:10 PM-1 °C-2 °C93 %1007.8 hPa4.8 kmNorth (350°)22.2 km/h0 mmSnowLight Snow
12:34 PM-1 °C-2 °C93 %1007.5 hPa4 kmNorth (350°)24.1 km/h0.25 mmSnowLight Snow
12:47 PM-1 °C-2 °C93 %1007.5 hPa1.9 kmNorth (350°)24.1 km/h0.25 mmSnowLight Snow
12:52 PM-0.6 °C-2.2 °C89 %1010.5 hPa1.9 kmNorth (350°)25.9 km/h0.25 mmSnowLight Snow
1:06 PM-1 °C-2 °C93 %1007.5 hPa1.9 kmNNW (340°)22.2 km/h0 mmSnowLight Snow
1:52 PM-0.6 °C-2.2 °C89 %1009.8 hPa1.6 kmNNW (340°)18.5 km/h0.51 mmSnowLight Snow
2:22 PM-1 °C-2 °C93 %1006.8 hPa3.2 kmNorth (350°)22.2 km/h0 mmSnowLight Snow
2:31 PM-1 °C-2 °C93 %1006.8 hPa2.9 kmNorth (350°)18.5 km/h0.25 mmSnowLight Snow
2:52 PM-1.1 °C-2.2 °C92 %1009.8 hPa2.4 kmNorth (350°)20.4 km/h0.25 mmSnowLight Snow
3:52 PM-1.7 °C-2.8 °C92 %1010.2 hPa1.9 kmNorth (10°)16.7 km/h0.51 mmSnowLight Snow
4:24 PM-2 °C-3 °C93 %1007.1 hPa3.2 kmNorth (10°)18.5 km/h0 mmSnowLight Snow
4:35 PM-2 °C-3 °C93 %1007.1 hPa6.4 kmNorth (10°)13 km/h0 mmSnowLight Snow
4:52 PM-1.7 °C-3.3 °C89 %1010.2 hPa6.4 kmNorth (360°)13 km/h0 mmSnowLight Snow
5:11 PM-2 °C-3 °C93 %1007.1 hPa11.3 kmNorth (350°)7.4 km/h0 mmSnowLight Snow
5:23 PM-2 °C-3 °C93 %1007.5 hPa14.5 kmNNW (330°)7.4 km/h0 mmSnowLight Snow
5:41 PM-3 °C-3 °C100 %1007.5 hPa16.1 kmCalm0 mmOvercast
5:52 PM-2.8 °C-3.9 °C92 %1010.8 hPa16.1 kmCalm0 mmOvercast
6:52 PM-2.8 °C-3.9 °C92 %1010.8 hPa16.1 kmCalmOvercast
7:52 PM-2.8 °C-3.3 °C96 %1010.8 hPa16.1 kmCalmOvercast
8:52 PM-2.8 °C-3.9 °C92 %1010.2 hPa12.9 kmCalm0 mmSnowLight Snow
9:52 PM-3.3 °C-4.4 °C92 %1010.2 hPa16.1 kmWest (270°)5.6 km/h0 mmOvercast
10:52 PM-5.6 °C-6.1 °C96 %1009.5 hPa16.1 kmWNW (290°)7.4 km/hMostly Cloudy
11:52 PM-7.8 °C-9.4 °C88 %1009.8 hPa16.1 kmNW (310°)7.4 km/hOvercast
Hourly data recorded from KRAP, located 0 kilometers away from Rapid City, South Dakota







STORIES FROM OUR PARTNERS